www.pogodaiklimat.ru
ПОГОДА в Янгстауне
Время
и дата
18:51 17.06
19:51 17.06
20:51 17.06
21:51 17.06
22:51 17.06
23:51 17.06
00:51 18.06
01:51 18.06
02:51 18.06
03:51 18.06
04:51 18.06
05:51 18.06
06:51 18.06
07:51 18.06
08:51 18.06
09:51 18.06
10:51 18.06
11:51 18.06
12:13 18.06
12:51 18.06
13:51 18.06
14:51 18.06
15:51 18.06
16:15 18.06
16:34 18.06
16:51 18.06
17:34 18.06
17:51 18.06
18:20 18.06
18:51 18.06
19:37 18.06
19:51 18.06
20:51 18.06
21:51 18.06
22:51 18.06
23:51 18.06
00:51 19.06
01:51 19.06
02:51 19.06
03:51 19.06
04:51 19.06
05:51 19.06
06:51 19.06
07:51 19.06
08:51 19.06
09:51 19.06
10:51 19.06
11:51 19.06
Ветер
(напр.,м/с)
Видим. Явления Облачность Т
(С)
Тd
(С)
f
(%)
Тe
(С)
Тes
(С)
Комфортность P
(гПа)
Po
(гПа)
Тmin
(С)
Tmax
(С)
R
(мм)
R24
(мм)
S
(см)
ЮВ 4 16 км 8/0 7500 m
[Ci]
+23.9 +20.0 79 +29 +31 душно 1018.3 975.6 +21.7 +32.8 1.0
ЮВ 3 16 км 8/0 2400 m
[Ac Ci]
+23.3 +20.0 82 +30 +31 очень
душно
1018.2 975.6
ЮВ 4 16 км 8/0 2550 m
[Ac Ci]
+21.7 +19.4 87 +27 +27 душно 1018.5 975.9
Ю 4 16 км 5/0 7500 m
[Ci]
+22.2 +19.4 84 +28 +28 душно 1019.5 976.9
ЮВ 3 16 км 5/0 7500 m
[Ci]
+20.6 +18.9 90 +25 +25 комфорт 1019.7 977.2
Ю 3 16 км 5/0 4200 m
[Ac Ci]
+21.7 +19.4 87 +27 +27 душно 1019.5 977.2
В 3 16 км 5/0 4200 m
[Ac Ci]
+20.0 +18.9 93 +24 +24 комфорт 1019.6 977.2 +19.4 +23.9
ЮВ 4 16 км 2/0 7500 m
[Ci]
+20.6 +19.4 93 +25 +25 комфорт 1019.8 977.6
ЮВ 4 16 км 2/0 7500 m
[Ci]
+21.7 +19.4 87 +27 +27 душно 1020.0 977.2
ЮВ 3 16 км 5/0 7500 m
[Ci]
+21.1 +19.4 90 +26 +26 душно 1020.5 977.6
Ю 4 16 км 5/0 4800 m
[Ac Ci]
+21.7 +18.9 84 +27 +27 душно 1020.9 978.2
ЮВ 2 13 км 8/0 4800 m
[Ac Ci]
+20.6 +18.9 90 +25 +25 комфорт 1021.2 978.5
ЮВ 2 16 км 8/0 4800 m
[Ac Ci]
+23.9 +20.0 79 +29 +30 душно 1021.5 978.9 +19.4 +23.9 1.0
Ю 3 16 км 8/0 4500 m
[Ac Ci]
+26.7 +21.7 74 +34 +36 очень
душно
1022.1 979.5
Ю 3 16 км 8/0 2250 m
[Ac Ci]
+28.3 +22.2 70 +37 +41 очень
душно
1022.2 979.5
нст 2 16 км 8/0 4800 m
[Ac Ci]
+30.0 +22.8 65 +40 +48 очень
душно
1022.2 979.8
З 2 16 км 8/2 1350 m
[Ac Ci]
+31.1 +23.3 63 +42 +49 опасность
перегрева
1022.1 979.5
Ю 3 16 км 8/5 1350 m
[Ci]
+32.2 +22.2 56 +41 +48 опасность
перегрева
1021.8 979.5
Ю 2 13 км гроза 8/8 1260 m
[Ci Cb]
+31.7 +22.2 57 +41 +45 очень
душно
979.5
ЮВ 10
{13}
16 км гроза 8/8 1320 m
[Ci Cb]
+28.3 +18.9 57 +34 +34 очень
душно
1022.2 979.5 +23.9 +32.2
ЮВ 6 13 км гроза со слабым дождем 8/5 1350 m
[Ac Ci Cb]
+26.7 +20.6 69 +33 +36 очень
душно
1021.5 978.9
В 3 16 км гроза 8/2 1500 m
[Ac Ci Cb]
+27.8 +22.2 72 +36 +44 очень
душно
1020.8 978.2
СЗ 11
{15}
5 км гроза с дождем, дымка 8/5 1350 m
[Ac Ci Cb]
+23.3 +21.7 91 +32 +32 очень
душно
1021.9 979.2 1.5
Ю 4 4 км гроза с дождем, дымка 10/8 360 m
[Ac Ci Cb]
+22.2 +21.1 93 +29 +30 очень
душно
979.8
С 5 5 км гроза со слабым дождем, дымка 10/8 300 m
[Ac Ci Cb]
+22.8 +21.7 94 +31 +31 очень
душно
979.5
СВ 4 13 км гроза 10/5 300 m
[Ci Cb]
+23.3 +21.7 91 +32 +34 очень
душно
1022.9 980.2
СВ 3 16 км 8/2 300 m
[Ac]
+23.3 +21.1 87
СВ 4 16 км 8/2 1200 m
[Ac Ci]
+23.3 +21.1 87 +31 +33 очень
душно
1022.4 979.5
ЮВ 8
{12}
16 км гроза 8/2 330 m
[Ac Ci Cb]
+23.3 +21.1 87 +31 +31 очень
душно
980.2
Ю 4 16 км гроза со слабым дождем 8/5 360 m
[Ac Ci Cb]
+23.9 +21.1 84 +30 +31 очень
душно
1022.8 980.2 +22.2 +29.4 4.1
ЮВ 3 16 км 8/2 1500 m
[Ac Ci Cb]
+22.2 +20.0 87 +28 +28 душно 979.2
ЮВ 2 16 км 8/2 1650 m
[Ac Ci Cb]
+21.7 +20.0 90 +27 +27 душно 1021.9 979.2
ЮВ 3 16 км 8/2 1800 m
[Ac Ci]
+21.7 +20.0 90 +27 +27 душно 1022.0 979.5
В 3 16 км 8/0 7500 m
[Ci]
+20.6 +19.4 93 +25 +25 комфорт 1022.3 979.8 2.3
Ю 2 16 км 5/0 6600 m
[Ci]
+21.1 +20.0 93 +26 +26 душно 1022.4 979.8
ЮВ 4 16 км 8/0 6600 m
[Ci]
+21.7 +20.0 90 +27 +27 душно 1022.1 979.5
ЮВ 4 16 км 8/0 7500 m
[Ci]
+21.7 +20.6 93 +27 +27 душно 1022.5 979.8 +20.6 +23.9 2.3
ЮВ 4 16 км 8/0 7500 m
[Ci]
+22.2 +20.6 91 +29 +29 очень
душно
1022.9 980.2
ЮВ 3 16 км 10/0 7500 m
[Ci]
+21.7 +20.6 93 +27 +27 душно 1023.3 980.5
ЮВ 2 16 км 10/0 7500 m
[Ci]
+21.1 +20.0 93 +26 +26 душно 1023.9 981.1
ЮВ 2 16 км туман 10/0 6000 m
[Ac Ci]
+20.0 +18.9 93 +24 +24 комфорт 1024.5 981.5
ЮВ 3 10 км дымка, туман 10/0 6000 m
[Ac Ci]
+21.1 +20.6 97 +26 +26 душно 1024.8 981.8
ЮВ 2 16 км 10/0 3300 m
[Ac Ci]
+23.9 +21.1 84 +30 +31 очень
душно
1025.2 982.4 +19.4 +23.9 6.4
Ю 3 16 км 10/0 3300 m
[Ac Ci]
+24.4 +21.7 85 +31 +33 очень
душно
1025.9 983.1
Ю 2 16 км 8/0 3000 m
[Ac Ci]
+25.0 +21.7 82 +32 +36 очень
душно
1026.2 983.4
нст 2 16 км 8/0 4500 m
[Ac Ci]
+27.2 +22.8 77 +36 +43 очень
душно
1026.2 983.4
Ю 4 16 км 8/0 4200 m
[Ac Ci]
+27.2 +22.8 77 +36 +42 очень
душно
1026.2 983.4
Ю 3 16 км 8/0 4200 m
[Ac Ci]
+28.3 +23.3 74 +38 +49 очень
душно
1025.9 983.1
Местоположение метеостанции Youngstown-Warren Regional Airport: широта 41.2544 долгота -80.6739 высота над уровнем моря 364 м.
В архиве по умолчанию представлена погода в Янгстауне за последние 1-2 суток. Обновление информации о фактической погоде в базе происходит ежечасно! Архивные данные за месяц целиком и за предыдущие месяцы Вы можете получить, выбрав интересующий диапазон дат из раскрывающегося списка и нажав кнопку "Ввод!".
Внимание! Архив погоды МЕТАР в базе сайта по станциям, не включенным в климатический монитор, хранится не более 60 дней. Нет смысла пытаться выбрать более раннюю дату.
*Определитесь, кто Вы:
Внимание! Время в таблицах - местное (без учета летнего времени). Для получения всемирного времени необходимо вычесть поправку, которая равна -5 ч.
Смотрите также архив погоды в соседних городах и на ближайших метеорологических станциях:
Партнеры нашего сайта:      
Пояснения к столбцам:
  • Ветер - указаны скорость ветра в м/с - средняя за 10 мин, порывы в срок и между сроками (в фигурных скобках) и направление, откуда дует ветер: С - северный,
  • СВ - северо-восточный, В - восточный, ЮВ - юго-восточный, Ю - южный, ЮЗ - юго-западный, З - западный, СЗ - северо-западный.
  • Видимость - горизонтальная дальность видимости в метрах или километрах. При видимости от 1 до 10 км при отсутствии осадков обычно наблюдается дымка, при ухудшении видимости до 1 км и менее - туман. В сухую погоду видимость может ухудшаться дымом, пылью или мглою.
  • Явления - указаны атмосферные явления, наблюдавшиеся в срок или в последний час перед сроком; фигурными скобками обозначены явления, наблюдавшиеся между сроками (за 1-3 часа до срока); квадратными скобками обозначены град или гололедные отложения с указанием их диаметра в мм.
  • Облачность - указаны через наклонную черту общая и нижняя облачность в баллах и высота нижней границы облаков в метрах; квадратными скобками обозначены формы облаков: Ci - перистые, Cs - перисто-слоистые, Cc - перисто-кучевые, Ac - высококучевые, As - высокослоистые, Sc - слоисто-кучевые, Ns - слоисто-дождевые, Cu - кучевые, Cb - кучево-дождевые. Подробнее классификацию облаков см. в Атласе облаков (PDF).
  • T - Температура воздуха - температура, измеренная на высоте 2 м над землей.
  • Td - Температура точки росы - температура, при понижении до которой содержащийся в воздухе водяной пар достигнет насыщения.
  • f - Относительная влажность воздуха - влажноcть воздуха, измеренная на высоте 2 м над землей.
  • Te - Эффективная температура - температура, которую ощущает одетый по сезону человек в тени. Характеристика душности погоды. При расчете учитывается влияние влажности воздуха и скорости ветра на теплоощущения человека.
  • Tes - Эффективная температура на солнце - температура, которую ощущает человек, с поправкой на солнечный нагрев. Характеристика знойности погоды. Зависит от высоты солнца над горизонтом, облачности и скорости ветра. Ночью, в пасмурную погоду, а также при ветре 12 м/с и более поправка равна нулю.
  • P - Атмосферное давление - приведенное к уровню моря атмосферное давление.
  • Po - Атмосферное давление - измеренное на уровне метеостанции атмосферное давление.
  • Tmin - Минимальная температура - минимум температуры воздуха на высоте 2 м над землей.
  • Tmax - Максимальная температура - максимум температуры воздуха на высоте 2 м над землей.
  • R - Количество осадков - Количество выпавших осадков за период времени, мм. При наведении курсора мыши на число - период времени, за который выпало указанное количество осадков.
  • R24 - Количество осадков - Количество выпавших осадков за 24 часа, мм.
  • S - Снежный покров - Высота снежного покрова, см. При наведении курсора мыши на число - состояние снежного покрова и степень покрытия местности в баллах.